Time,TemperatureF,DewpointF,PressureIn,WindDirection,WindDirectionDegrees,WindSpeedMPH,WindSpeedGustMPH,Humidity,HourlyPrecipIn,Conditions,Clouds,dailyrainin,SoftwareType,DateUTC
2013-05-18 00:00:00,52.0,-99.9,-100.00,SSW,207,6.0,-999.0,-999,-99.99,,,-99.99,,2013-05-18 07:00:00,
2013-05-18 01:00:00,51.0,-99.9,-100.00,SSW,203,5.0,-999.0,-999,-99.99,,,-99.99,,2013-05-18 08:00:00,
2013-05-18 02:00:00,50.0,-99.9,-100.00,South,181,6.0,-999.0,-999,-99.99,,,-99.99,,2013-05-18 09:00:00,
2013-05-18 03:00:00,50.0,-99.9,-100.00,South,177,6.0,-999.0,-999,-99.99,,,-99.99,,2013-05-18 10:00:00,
2013-05-18 04:00:00,50.0,-99.9,-100.00,South,191,5.0,-999.0,-999,-99.99,,,-99.99,,2013-05-18 11:00:00,
2013-05-18 05:00:00,50.0,-99.9,-100.00,SSW,202,3.0,-999.0,-999,-99.99,,,-99.99,,2013-05-18 12:00:00,
2013-05-18 06:00:00,50.0,-99.9,-100.00,South,183,3.0,-999.0,-999,-99.99,,,-99.99,,2013-05-18 13:00:00,
2013-05-18 07:00:00,49.0,-99.9,-100.00,SSE,149,5.0,-999.0,-999,-99.99,,,-99.99,,2013-05-18 14:00:00,
2013-05-18 08:00:00,50.0,-99.9,-100.00,SSE,159,5.0,-999.0,-999,-99.99,,,-99.99,,2013-05-18 15:00:00,
2013-05-18 09:00:00,50.0,-99.9,-100.00,SSW,198,7.0,-999.0,-999,-99.99,,,-99.99,,2013-05-18 16:00:00,
2013-05-18 10:00:00,51.0,-99.9,-100.00,SSW,203,6.0,-999.0,-999,-99.99,,,-99.99,,2013-05-18 17:00:00,
2013-05-18 11:00:00,53.0,-99.9,-100.00,SSW,208,7.0,-999.0,-999,-99.99,,,-99.99,,2013-05-18 18:00:00,
2013-05-18 13:00:00,55.0,-99.9,-100.00,SW,217,8.0,-999.0,-999,-99.99,,,-99.99,,2013-05-18 20:00:00,
2013-05-18 14:00:00,55.0,-99.9,-100.00,SSW,209,7.0,-999.0,-999,-99.99,,,-99.99,,2013-05-18 21:00:00,
2013-05-18 15:00:00,52.0,-99.9,-100.00,SSW,203,7.0,-999.0,-999,-99.99,,,-99.99,,2013-05-18 22:00:00,
2013-05-18 16:00:00,53.0,-99.9,-100.00,SSW,201,7.0,-999.0,-999,-99.99,,,-99.99,,2013-05-18 23:00:00,
2013-05-18 17:00:00,53.0,-99.9,-100.00,SSW,198,6.0,-999.0,-999,-99.99,,,-99.99,,2013-05-19 00:00:00,
2013-05-18 18:00:00,53.0,-99.9,-100.00,South,175,6.0,-999.0,-999,-99.99,,,-99.99,,2013-05-19 01:00:00,
2013-05-18 19:00:00,53.0,-99.9,-100.00,SSE,154,5.0,-999.0,-999,-99.99,,,-99.99,,2013-05-19 02:00:00,
2013-05-18 20:00:00,53.0,-99.9,-100.00,ENE,71,2.0,-999.0,-999,-99.99,,,-99.99,,2013-05-19 03:00:00,
2013-05-18 23:00:00,52.0,-99.9,-100.00,NE,43,2.0,-999.0,-999,-99.99,,,-99.99,,2013-05-19 06:00:00,